• In Portugal
  • List of Countries
  • For 7 days
  • Water Temperature
  • Satellite Maps
  • Weather Map
  • Weather Widgets
  • user-avatar
    Login

    Hourly Weather Tappita

    Today, 17 December, Sunday

    Time Temperature Precipitation Wind Pressure Humidity
    00:00 +24°C° 0 mm 1 mps 738 mmHg 96%
    01:00 +24°C° 0 mm 1 mps 738 mmHg 97%
    02:00 +22°C° 0 mm 0 mps 738 mmHg 97%
    03:00 +21°C° 0 mm 0 mps 738 mmHg 97%
    04:00 +21°C° 0 mm 0 mps 738 mmHg 98%
    05:00 +21°C° 0 mm 0 mps 738 mmHg 98%
    06:00 +24°C° 0 mm 1 mps 738 mmHg 91%
    07:00 +26°C° 0 mm 1 mps 738 mmHg 84%
    08:00 +27°C° 0 mm 1 mps 739 mmHg 77%
    09:00 +30°C° 0 mm 1 mps 738 mmHg 65%
    10:00 +32°C° 0 mm 1 mps 738 mmHg 53%
    11:00 +34°C° 0 mm 1 mps 738 mmHg 42%
    12:00 +35°C° 0 mm 1 mps 737 mmHg 38%
    13:00 +35°C° 0 mm 0 mps 736 mmHg 34%
    14:00 +36°C° 0 mm 0 mps 736 mmHg 30%
    15:00 +34°C° 0 mm 0 mps 736 mmHg 35%
    16:00 +34°C° 0 mm 1 mps 736 mmHg 40%
    17:00 +32°C° 0 mm 1 mps 736 mmHg 45%
    18:00 +30°C° 0 mm 1 mps 736 mmHg 53%
    19:00 +29°C° 0 mm 1 mps 737 mmHg 61%
    20:00 +27°C° 0 mm 2 mps 737 mmHg 68%
    21:00 +26°C° 0 mm 1 mps 738 mmHg 75%
    22:00 +26°C° 0 mm 1 mps 738 mmHg 81%
    23:00 +25°C° 0 mm 1 mps 738 mmHg 88%

    Tomorrow, 18 December, Monday

    Time Temperature Precipitation Wind Pressure Humidity
    00:00 +25°C° 0 mm 1 mps 738 mmHg 90%
    01:00 +25°C° 0 mm 1 mps 737 mmHg 93%
    02:00 +22°C° 0 mm 0 mps 737 mmHg 95%
    03:00 +22°C° 0 mm 0 mps 737 mmHg 95%
    04:00 +22°C° 0 mm 0 mps 737 mmHg 95%
    05:00 +22°C° 0 mm 0 mps 737 mmHg 96%
    06:00 +25°C° 0 mm 1 mps 738 mmHg 90%
    07:00 +26°C° 0 mm 1 mps 738 mmHg 85%
    08:00 +27°C° 0 mm 1 mps 738 mmHg 79%
    09:00 +28°C° 0 mm 1 mps 738 mmHg 74%
    10:00 +29°C° 0 mm 1 mps 738 mmHg 68%
    11:00 +30°C° 0 mm 1 mps 738 mmHg 63%
    12:00 +32°C° 0 mm 1 mps 737 mmHg 58%
    13:00 +33°C° 0 mm 1 mps 736 mmHg 52%
    14:00 +34°C° 0 mm 1 mps 735 mmHg 47%
    15:00 +33°C° 0 mm 1 mps 735 mmHg 52%
    16:00 +32°C° 0 mm 1 mps 735 mmHg 56%
    17:00 +31°C° 0 mm 1 mps 735 mmHg 61%
    18:00 +29°C° 0 mm 1 mps 736 mmHg 67%
    19:00 +28°C° 0 mm 1 mps 736 mmHg 73%
    20:00 +27°C° 0 mm 2 mps 737 mmHg 79%
    21:00 +26°C° 0 mm 2 mps 737 mmHg 82%
    22:00 +26°C° 0 mm 1 mps 737 mmHg 86%
    23:00 +25°C° 0 mm 1 mps 737 mmHg 89%

    Day after tomorrow, 19 December, Tuesday

    Time Temperature Precipitation Wind Pressure Humidity
    00:00 +25°C° 0 mm 1 mps 737 mmHg 92%
    01:00 +25°C° 0 mm 1 mps 736 mmHg 94%
    02:00 +24°C° 0 mm 1 mps 736 mmHg 96%
    03:00 +24°C° 0 mm 1 mps 736 mmHg 96%
    04:00 +24°C° 0 mm 1 mps 736 mmHg 95%
    05:00 +24°C° 0 mm 1 mps 737 mmHg 95%
    06:00 +26°C° 0 mm 1 mps 737 mmHg 89%
    07:00 +27°C° 0 mm 1 mps 738 mmHg 84%
    08:00 +28°C° 0 mm 1 mps 738 mmHg 78%
    09:00 +29°C° 0.1 mm 1 mps 738 mmHg 71%
    10:00 +31°C° 0.1 mm 1 mps 738 mmHg 64%
    11:00 +32°C° 0.1 mm 1 mps 738 mmHg 56%
    12:00 +32°C° 0.3 mm 1 mps 737 mmHg 55%
    13:00 +33°C° 0.3 mm 1 mps 736 mmHg 54%
    14:00 +34°C° 0.3 mm 2 mps 735 mmHg 53%
    15:00 +31°C° 0.7 mm 2 mps 735 mmHg 61%
    16:00 +30°C° 0.7 mm 2 mps 735 mmHg 70%
    17:00 +28°C° 0.7 mm 2 mps 735 mmHg 78%
    18:00 +27°C° 0.1 mm 2 mps 736 mmHg 83%
    19:00 +26°C° 0.1 mm 1 mps 737 mmHg 87%
    20:00 +25°C° 0.1 mm 1 mps 737 mmHg 92%
    21:00 +25°C° 0 mm 1 mps 737 mmHg 94%
    22:00 +25°C° 0 mm 1 mps 737 mmHg 95%
    23:00 +24°C° 0 mm 1 mps 737 mmHg 97%

    20 December, Wednesday

    Time Temperature Precipitation Wind Pressure Humidity
    00:00 +24°C° 0 mm 1 mps 736 mmHg 97%
    01:00 +24°C° 0 mm 1 mps 736 mmHg 97%
    02:00 +24°C° 0 mm 1 mps 736 mmHg 97%
    03:00 +24°C° 0 mm 1 mps 736 mmHg 96%
    04:00 +24°C° 0 mm 1 mps 736 mmHg 95%
    05:00 +24°C° 0 mm 1 mps 736 mmHg 94%
    06:00 +25°C° 0 mm 1 mps 736 mmHg 91%
    07:00 +26°C° 0 mm 1 mps 737 mmHg 87%
    08:00 +26°C° 0 mm 1 mps 738 mmHg 83%
    09:00 +28°C° 0 mm 1 mps 738 mmHg 76%
    10:00 +30°C° 0 mm 1 mps 737 mmHg 68%
    11:00 +31°C° 0 mm 1 mps 737 mmHg 60%
    12:00 +32°C° 0 mm 1 mps 737 mmHg 56%
    13:00 +33°C° 0 mm 1 mps 736 mmHg 52%
    14:00 +34°C° 0 mm 1 mps 735 mmHg 48%
    15:00 +33°C° 0.1 mm 1 mps 735 mmHg 54%
    16:00 +31°C° 0.1 mm 1 mps 735 mmHg 61%
    17:00 +30°C° 0.1 mm 1 mps 735 mmHg 68%
    18:00 +28°C° 0 mm 1 mps 736 mmHg 74%
    19:00 +27°C° 0 mm 1 mps 736 mmHg 80%
    20:00 +26°C° 0 mm 1 mps 737 mmHg 85%
    21:00 +26°C° 0 mm 1 mps 737 mmHg 88%
    22:00 +25°C° 0 mm 1 mps 737 mmHg 91%
    23:00 +25°C° 0 mm 1 mps 737 mmHg 95%

    21 December, Thursday

    Time Temperature Precipitation Wind Pressure Humidity
    00:00 +25°C° 0 mm 1 mps 736 mmHg 96%
    01:00 +24°C° 0 mm 1 mps 736 mmHg 97%
    02:00 +24°C° 0 mm 1 mps 736 mmHg 98%
    03:00 +22°C° 0 mm 0 mps 736 mmHg 97%
    04:00 +22°C° 0 mm 0 mps 736 mmHg 96%
    05:00 +23°C° 0 mm 0 mps 737 mmHg 96%
    06:00 +26°C° 0 mm 1 mps 737 mmHg 89%
    07:00 +27°C° 0 mm 1 mps 738 mmHg 83%
    08:00 +28°C° 0 mm 1 mps 738 mmHg 76%
    09:00 +30°C° 0 mm 1 mps 738 mmHg 68%
    10:00 +32°C° 0 mm 1 mps 738 mmHg 59%
    11:00 +32°C° 0 mm 0 mps 737 mmHg 51%
    12:00 +34°C° 0.5 mm 1 mps 737 mmHg 52%
    13:00 +33°C° 0.5 mm 1 mps 736 mmHg 54%
    14:00 +33°C° 0.5 mm 1 mps 735 mmHg 55%
    15:00 +31°C° 1 mm 1 mps 735 mmHg 63%
    16:00 +30°C° 1 mm 1 mps 736 mmHg 71%
    17:00 +28°C° 1 mm 1 mps 736 mmHg 79%
    18:00 +27°C° 0 mm 1 mps 736 mmHg 83%
    19:00 +26°C° 0 mm 1 mps 737 mmHg 87%
    20:00 +25°C° 0 mm 1 mps 738 mmHg 91%
    21:00 +25°C° 0 mm 1 mps 738 mmHg 93%
    22:00 +25°C° 0 mm 1 mps 738 mmHg 95%
    23:00 +22°C° 0 mm 0 mps 738 mmHg 97%

    22 December, Friday

    Time Temperature Precipitation Wind Pressure Humidity
    00:00 +22°C° 0 mm 0 mps 737 mmHg 97%
    01:00 +22°C° 0 mm 0 mps 737 mmHg 98%
    02:00 +22°C° 0 mm 0 mps 737 mmHg 98%
    03:00 +22°C° 0.1 mm 0 mps 737 mmHg 98%
    04:00 +22°C° 0.1 mm 0 mps 737 mmHg 97%
    05:00 +22°C° 0.1 mm 0 mps 737 mmHg 96%
    06:00 +23°C° 0 mm 0 mps 738 mmHg 92%
    07:00 +26°C° 0 mm 1 mps 738 mmHg 88%
    08:00 +27°C° 0 mm 1 mps 739 mmHg 84%
    09:00 +29°C° 0.1 mm 1 mps 738 mmHg 74%
    10:00 +31°C° 0.1 mm 1 mps 738 mmHg 64%
    11:00 +31°C° 0.1 mm 0 mps 738 mmHg 54%
    12:00 +34°C° 0.1 mm 1 mps 737 mmHg 50%
    13:00 +34°C° 0.1 mm 1 mps 736 mmHg 46%
    14:00 +35°C° 0.1 mm 1 mps 735 mmHg 43%
    15:00 +33°C° 0.2 mm 1 mps 735 mmHg 50%
    16:00 +32°C° 0.2 mm 1 mps 735 mmHg 57%
    17:00 +30°C° 0.2 mm 1 mps 736 mmHg 64%
    18:00 +28°C° 0 mm 1 mps 736 mmHg 71%
    19:00 +27°C° 0 mm 1 mps 737 mmHg 79%
    20:00 +26°C° 0 mm 1 mps 737 mmHg 86%
    21:00 +25°C° 0.1 mm 1 mps 737 mmHg 89%
    22:00 +25°C° 0.1 mm 1 mps 737 mmHg 92%
    23:00 +24°C° 0.1 mm 1 mps 737 mmHg 94%
    Show more